Location: Pedholt
(56.0260°N, 10.2097°E)
Time: 02:26:01
(UTC+00:00)

Transit 2A Rocket - Pass Details

Date: 30 July 2021
Orbit: 586 x 917 km, 66.7° (Epoch: 27 September)

Event Time Altitude Azimuth Distance (km) Brightness Sun altitude
Rises 15:16:43 0° 233° (SW) 2,894 8.9 33.0°
Reaches altitude 10° 15:18:54 10° 236° (WSW) 2,025 8.5 32.7°
Maximum altitude 15:23:27 66° 319° (NW) 743 5.7 32.0°
Drops below altitude 10° 15:28:28 10° 42° (NE) 2,230 7.1 31.4°
Sets 15:30:59 0° 46° (NE) 3,213 7.8 31.0°
